Weather History for Eastover, SC

Change the Weather History Date:

Monday, April 22, 2013

  Actual Average Record
Temperature  
Mean Temperature 56 °F -  
Max Temperature 67 °F 73 °F 87 °F (1999)
Min Temperature 46 °F 53 °F 45 °F (2009)
Degree Days  
Heating Degree Days 9    
Growing Degree Days 6 (Base 50)    
Moisture  
Dew Point 33 °F    
Average Humidity 44    
Maximum Humidity 67    
Minimum Humidity 26    
Precipitation  
Precipitation 0.00 in - - ()
Sea Level Pressure  
Sea Level Pressure 30.29 in    
Wind  
Wind Speed 9 mph (NE)    
Max Wind Speed 15 mph    
Max Gust Speed 25 mph    
Visibility 10 miles    
Events      
Averages and records for this station are not official NWS values.
T = Trace of Precipitation, MM = Missing Value Source: NWS Daily Summary

Daily Weather History Graph

Daily Weather History Graph

Search for Another Location

Airport:

Trip Planner

Search our weather history database for the weather conditions in past years. The results will help you decide how hot, cold, wet, or windy it might be!

Date:

Astronomy

Apr. 22, 2013 Rise Set
Actual Time 6:43 AM EDT 8:00 PM EDT
Civil Twilight 6:17 AM EDT 8:26 PM EDT
Nautical Twilight 5:46 AM EDT 8:57 PM EDT
Astronomical Twilight 5:14 AM EDT 9:29 PM EDT
Moon 4:55 PM EDT (4/22) 4:28 AM EDT (4/22)
Length of Visible Light 14h 08m
Length of Day
13h 16m
Waxing Gibbous, 87% of the Moon is Illuminated
Apr 22
Waxing Gibbous
Apr 25
Full
May 2
Last Quarter
May 9
New
May 18
First Quarter

Hourly Weather History & Observations

Time (EDT) Temp. Dew Point Humidity Pressure Visibility Wind Dir Wind Speed Gust Speed Precip Events Conditions
12:58 AM 53.4 °F 40.8 °F 62% 30.35 in 10.0 mi NE 6.9 mph - N/A   Clear
1:58 AM 51.8 °F 40.1 °F 64% 30.34 in 10.0 mi ENE 9.2 mph - N/A   Partly Cloudy
2:58 AM 50.7 °F 39.2 °F 65% 30.32 in 10.0 mi NE 11.5 mph 17.3 mph N/A   Scattered Clouds
3:58 AM 49.3 °F 36.9 °F 62% 30.32 in 10.0 mi ENE 9.2 mph - N/A   Clear
4:58 AM 48.0 °F 36.9 °F 65% 30.33 in 10.0 mi ENE 8.1 mph - N/A   Scattered Clouds
5:58 AM 47.7 °F 35.4 °F 63% 30.33 in 10.0 mi NE 9.2 mph 18.4 mph N/A   Mostly Cloudy
6:55 AM 46.9 °F 33.8 °F 60% 30.34 in 10.0 mi ENE 9.2 mph - N/A   Scattered Clouds
6:58 AM 46.9 °F 33.8 °F 60% 30.34 in 10.0 mi NE 9.2 mph - N/A   Scattered Clouds
7:55 AM 47.5 °F 28.9 °F 49% 30.35 in 10.0 mi NE 10.4 mph 16.1 mph N/A   Partly Cloudy
7:58 AM 47.5 °F 28.9 °F 49% 30.35 in 10.0 mi NE 10.4 mph 16.1 mph N/A   Partly Cloudy
8:58 AM 50.4 °F 25.0 °F 37% 30.36 in 10.0 mi Variable 5.8 mph 25.3 mph N/A   Partly Cloudy
9:58 AM 53.1 °F 24.8 °F 33% 30.36 in 10.0 mi NNE 12.7 mph 19.6 mph N/A   Partly Cloudy
10:58 AM 56.8 °F 25.3 °F 30% 30.35 in 10.0 mi NE 15.0 mph 18.4 mph N/A   Partly Cloudy
11:58 AM 59.2 °F 27.5 °F 30% 30.33 in 10.0 mi North 11.5 mph 18.4 mph N/A   Partly Cloudy
12:55 PM 62.6 °F 30.7 °F 30% 30.30 in 10.0 mi North 12.7 mph 20.7 mph N/A   Partly Cloudy
12:58 PM 62.6 °F 30.7 °F 30% 30.30 in 10.0 mi NNE 8.1 mph 20.7 mph N/A   Partly Cloudy
1:58 PM 64.4 °F 32.0 °F 30% 30.28 in 10.0 mi NE 10.4 mph 19.6 mph N/A   Partly Cloudy
2:58 PM 65.7 °F 31.3 °F 28% 30.26 in 10.0 mi NE 12.7 mph 17.3 mph N/A   Clear
3:58 PM 66.6 °F 30.9 °F 26% 30.23 in 10.0 mi NE 9.2 mph 18.4 mph N/A   Clear
4:58 PM 66.7 °F 30.6 °F 26% 30.21 in 10.0 mi NE 10.4 mph - N/A   Clear
5:58 PM 66.9 °F 31.1 °F 26% 30.20 in 10.0 mi NNE 8.1 mph - N/A   Clear
6:58 PM 65.3 °F 30.4 °F 27% 30.19 in 10.0 mi North 6.9 mph - N/A   Clear
7:58 PM 61.5 °F 32.4 °F 33% 30.20 in 10.0 mi North 4.6 mph - N/A   Clear
8:58 PM 56.8 °F 34.7 °F 43% 30.22 in 10.0 mi North 4.6 mph - N/A   Clear
9:58 PM 55.6 °F 35.8 °F 47% 30.23 in 10.0 mi NNE 4.6 mph - N/A   Clear
10:58 PM 52.3 °F 37.6 °F 57% 30.24 in 10.0 mi NNE 3.5 mph - N/A   Clear
11:58 PM 49.3 °F 38.7 °F 67% 30.23 in 10.0 mi North 3.5 mph - N/A   Clear